Weather in Promyslovka

Russia / Astrakhan Oblast     45°43′21″N   47°09′59″E
temp.,
°C
wind,
m/s
gust,
m/s
humid.,
%
clouds,
%
prec.,
mm/h
press.,
hPa
HPBL,
m
15 june, tue
tue1501:00+22n35740 0.0 1009168
04:00+20nnw227797 0.0 100945
07:00+21nw3473100 0.0 1009218
10:00+25w3355100 0.0 1009719
13:00+28sw1242100 0.0 10091083
16:00+30sw1235100 0.0 10091648
19:00+30s113720 0.0 1008645
22:00+25s46574 0.0 1010126
16 june, wed
wed1601:00+24sw33640 0.0 100960
04:00+23wsw22670 0.0 101014
07:00+25nne00590 0.0 1011114
10:00+29e23420 0.0 10111023
13:00+33se55320 0.0 10101755
16:00+33se66330 0.0 10091466
19:00+30se67400 0.0 1009520
22:00+26ese35570 0.0 1009156
17 june, thu
thu1701:00+25ene45530 0.0 100888
04:00+24ene59490 0.0 1008158
07:00+26ene6134418 0.0 1007363
10:00+34ese911261 0.0 10071125
13:00+36ese88210 0.0 10081243
16:00+36ese8920100 0.0 10071174
19:00+33e8112693 0.0 1008612
22:00+27se595621 0.0 1009337
18 june, fri
fri1801:00+25se466147 0.0 1009186
04:00+24ese467416 0.0 1010151
07:00+26ene45663 0.4 1011370
10:00+32e9103614 0.6 10121523
13:00+33e101037100 0.0 10131764
16:00+33ese8936100 0.0 10141808
19:00+30se774712 0.0 1015610
22:00+27e375217 0.3 1018263
19 june, sat
sat1901:00+25ne613304 0.0 1019420
04:00+24ene713330 0.0 1020462
07:00+24ene711370 0.0 1021560
10:00+28ene78290 0.0 10221281
13:00+31ene77210 0.0 10211883
16:00+32ese88210 0.0 10201970
19:00+28e99270 0.0 10201275
22:00+24ene511390 0.0 1020431